Location: Unspecified
(40.7945°N, 111.1337°W)
Time: 10:43:07
(UTC-06:00)

Courier 1B Rocket - All Passes

Search period start: 19 June 2019 00:00
Search period end: 29 June 2019 00:00
Orbit: 920 x 1202 km, 28.2° (Epoch: 19 June)

Date Brightness Start Highest point End Pass type
(mag) Time Alt. Az. Time Alt. Az. Time Alt. Az.
19 Jun - 06:03:24 10° SSW 06:07:18 16° SSE 06:11:06 10° SE daylight
19 Jun - 07:54:43 10° SW 07:59:50 25° S 08:04:48 10° ESE daylight
19 Jun - 09:47:34 10° WSW 09:52:23 23° S 09:57:08 10° SE daylight
19 Jun - 11:42:19 10° SW 11:44:46 12° SSW 11:47:14 10° S daylight
20 Jun - 05:03:45 10° S 05:06:34 13° SSE 05:09:19 10° SE visible
20 Jun - 06:54:01 10° SW 06:59:04 23° S 07:03:56 10° ESE daylight
20 Jun - 08:46:33 10° WSW 08:51:40 25° S 08:56:38 10° SE daylight
20 Jun - 10:40:24 10° SW 10:44:06 16° SSW 10:47:48 10° SSE daylight
21 Jun - 05:53:28 10° SSW 05:58:18 21° SSE 06:02:57 10° ESE daylight
21 Jun - 07:45:36 10° SW 07:50:54 26° S 07:56:02 10° SE daylight
21 Jun - 09:38:58 10° WSW 09:43:25 20° SSW 09:47:48 10° SSE daylight
22 Jun - 04:53:09 10° SSW 04:57:31 18° SSE 05:01:44 10° ESE visible
22 Jun - 06:44:42 10° SW 06:50:08 26° S 06:55:18 10° ESE daylight
22 Jun - 08:37:44 10° WSW 08:42:43 23° S 08:47:33 10° SE daylight
22 Jun - 10:32:45 10° SW 10:35:05 12° SSW 10:37:24 10° S daylight
23 Jun - 03:53:14 10° S 03:56:44 14° SSE 04:00:08 10° SE visible
23 Jun - 05:43:54 10° SW 05:49:19 25° S 05:54:29 10° ESE daylight
23 Jun - 07:36:36 10° WSW 07:41:58 26° S 07:47:06 10° SE daylight
23 Jun - 09:30:38 10° WSW 09:34:25 16° SSW 09:38:09 10° SSE daylight
24 Jun - 02:54:38 10° SSE 02:55:55 10° SSE 02:57:13 10° SE visible
24 Jun - 04:43:14 10° SW 04:48:30 22° SSE 04:53:31 10° ESE visible
24 Jun - 06:35:32 10° WSW 06:41:10 27° S 06:46:32 10° SE daylight
24 Jun - 08:29:04 10° WSW 08:33:44 21° SSW 08:38:14 10° SSE daylight
25 Jun - 03:42:46 10° SSW 03:47:40 19° SSE 03:52:20 10° ESE visible
25 Jun - 05:34:33 10° SW 05:40:21 28° S 05:45:50 10° ESE daylight
25 Jun - 07:27:44 10° WSW 07:33:00 24° S 07:38:02 10° SE daylight
25 Jun - 09:22:53 10° SW 09:25:22 12° SSW 09:27:49 10° S daylight
26 Jun - 02:42:43 10° SSW 02:46:48 15° SSE 02:50:46 10° SE visible
26 Jun - 04:33:39 10° SW 04:39:29 26° S 04:45:00 10° ESE visible
26 Jun - 06:26:30 10° WSW 06:32:13 27° S 06:37:37 10° SE daylight
26 Jun - 08:20:40 10° WSW 08:24:42 17° SSW 08:28:37 10° SSE daylight
27 Jun - 01:43:33 10° S 01:45:57 12° SSE 01:48:19 10° SE visible
27 Jun - 03:32:54 10° SW 03:38:35 24° SSE 03:44:01 10° ESE visible
27 Jun - 05:25:21 10° WSW 05:31:21 29° S 05:37:02 10° SE daylight
27 Jun - 07:19:00 10° WSW 07:23:59 21° SSW 07:28:45 10° SSE daylight
28 Jun - 02:32:24 10° SSW 02:37:42 20° SSE 02:42:47 10° ESE visible
28 Jun - 04:24:17 10° SW 04:30:28 29° S 04:36:18 10° ESE visible
28 Jun - 06:17:35 10° WSW 06:23:12 25° SSW 06:28:32 10° SE daylight
28 Jun - 08:12:46 10° SW 08:15:37 13° SSW 08:18:23 10° S daylight
